Regional Weather Roundup
Issued by NWS Wakefield, VA

Home | Current Version | Previous Version | Text Only | Print | Product List | Glossary Off
Versions: 1 2 3 4 5 6 7 8 9 10 11 12 13 14 15 16 17 18 19 20 21 22 23 24 25 26 27 28 29 30 31 32 33 34 35 36 37 38 39 40 41 42 43 44 45 46 47 48 49 50

000
ASUS41 KAKQ 271610
RWRAKQ

REGIONAL WEATHER ROUNDUP
NATIONAL WEATHER SERVICE WAKEFIELD VA
1100 AM EST TUE JAN 27 2015

Note: "fair" indicates few or no clouds below 12,000 feet with no
significant weather and/or obstructions to visibility. * = Denotes
station may not report precipitation (e.g., rain,snow,etc.),
thunder or fog.

VAZ042-051-052>054-056-271700-
NORTHERN VIRGINIA

CITY           SKY/WX    TMP DP  RH WIND       PRES   REMARKS
WASH NATIONAL  CLOUDY    33  22  63 NW12      29.84S WCI  24
DULLES         PTSUNNY   29  20  69 NW21G26   29.83R WCI  16
FORT BELVOIR   CLOUDY    31  21  68 NW10      29.84S WCI  22
QUANTICO       CLOUDY    32  22  66 N16G24    29.85S WCI  21
FREDERICKSBRG* CLOUDY    33  24  71 N9G22     29.83F
STAFFORD*      CLOUDY    31  22  69 CALM      29.87F
WARRENTON      CLOUDY    33  27  78 NW15G21   29.83S WCI  23
CULPEPER*      CLOUDY    32  23  69 N12       29.84S WCI  23
MANASSAS*      CLOUDY    32  25  74 NW17G24   29.84S WCI  21
LEESBURG*      CLOUDY    30  27  86 NW14G22   29.84R WCI  20
WINCHESTER     CLOUDY    30  19  64 NW17G23   29.85S WCI  18
FRONT ROYAL*   CLOUDY    28  21  74 NW7       29.85S
LURAY*         LGT SNOW  30  28  93 CALM      29.85S
$$

VAZ048-049-060>072-079>083-271700-
CENTRAL AND SOUTH CENTRAL VIRGINIA

CITY           SKY/WX    TMP DP  RH WIND       PRES   REMARKS
RICHMOND       FLURRIES  33  25  72 N18G24    29.82S WCI  22
CHESTERFIELD*  CLOUDY    32  18  55 N10       29.84R WCI  24
PETERSBURG*    LGT SNOW  32  28  83 NW10G18   29.84R WCI  24
HANOVER        CLOUDY    32  24  72 N7        29.84S
TAPPAHANNOCK*  CLOUDY    32  22  67 NW8G16    29.82S
QUINTON*       CLOUDY    32  25  76 N6        29.82S
CHARLOTTSVILLE CLOUDY    32  20  61 VRB6      29.82R
GORDONSVILLE*  CLOUDY    31  26  80 W3        29.83R
ORANGE*        FLURRIES  32  30  93 SW3       29.85R
LOUISA*        CLOUDY    34  27  75 N5        29.82R
BUMPASS*       CLOUDY    31  24  77 NW7       29.83R
FARMVILLE*     CLOUDY    40  38  96 N8        29.82S
CREWE*         CLOUDY    32  28  86 CALM      29.83S
FORT PICKETT*  CLOUDY    31  29  92 N8        29.82S
CHASE CITY*    PTSUNNY   37  29  71 NW7       29.82S
CLARKSVILLE*   CLOUDY    34  23  64 NW10      29.83S
SOUTH HILL*    CLOUDY    32  28  86 N8        29.89R
LAWRENCEVILLE* CLOUDY    31  29  92 NW7       29.82S
EMPORIA*       LGT SNOW  32  28  86 NW9       29.84F
$$

VAZ088>098-271700-
SOUTHEAST VIRGINIA

CITY           SKY/WX    TMP DP  RH WIND       PRES   REMARKS
NORFOLK        CLOUDY    33  26  75 NW12G20   29.77S WCI  24
VIRGINIA BEACH CLOUDY    34  28  79 NW16      29.76S WCI  24
NORFOLK NAVAL  CLOUDY    35  26  69 NW12      29.79S
WEST POINT*    CLOUDY    34  25  68 NW6G16    29.82S
SALUDA*        CLOUDY    31  26  78 N13       29.79S WCI  22
NEWPORT NEWS   CLOUDY    35  25  66 N10G18    29.79R
LANGLEY AFB    CLOUDY    33  27  78 N13       29.78S WCI  23
FORT EUSTIS    CLOUDY    33  27  80 N12G23    29.78R WCI  24
WILLIAMSBURG*    N/A     36  28  75 NW9       29.81S
HR EXEC AP*    CLOUDY    30  27  86 NW8       29.81S
FRANKLIN*      CLOUDY    32  27  81 NW8       29.82R
WAKEFIELD      CLOUDY    33  24  69 VRB7      29.81S
$$

VAZ020-022-025-037-045-271700-
WEST CENTRAL AND SOUTHWEST VIRGINIA

CITY           SKY/WX    TMP DP  RH WIND       PRES   REMARKS
STAUNTON*      CLOUDY    30  20  67 N10       29.85S WCI  21
WAYNESBORO*    FAIR      27  19  70 N8        29.82R
HOT SPRINGS VA SUNNY     17  11  78 W14       29.67R WCI   2
LYNCHBURG      SUNNY     34   7  32 N10G16    29.83S
DANVILLE       SUNNY     37  11  34 N13       29.85S
SOUTH BOSTON*  FAIR      36  18  47 NW7       29.84S
MARTINSVILLE   SUNNY     37   9  31 N13       29.87S
ROANOKE        MOSUNNY   33   7  33 NW10      29.86S WCI  25
BLACKSBURG     SUNNY     27  10  48 W10G16    29.85R WCI  17
DUBLIN*        SUNNY     30  10  43 NW13      29.85R WCI  20
MARION*        MOSUNNY   27  11  51 W18G24    29.85F WCI  14
HILLSVILLE*    MOSUNNY   26   9  47 NW14G21   29.79R WCI  15
RICHLANDS*     FAIR      24  13  62 NW8       29.86S
WISE*          CLOUDY    27  18  69 NW7       29.89S
ABINGDON*      PTSUNNY   30  18  60 N12       29.90R WCI  21
$$

MDZ021>025-VAZ099-100-271700-
SOUTHERN MARYLAND AND THE DELMARVA PENINSULA

CITY           SKY/WX    TMP DP  RH WIND       PRES   REMARKS
PATUXENT RIVER CLOUDY    32  24  72 NW17      29.79S WCI  21
BAY BRIDGE APT   N/A     32  25  74 NW12G17   29.80F WCI  23
LEONARDTOWN    CLOUDY    32  23  69 NW7G16    29.80F
DOVER          FLURRIES  30  28  93 NW16      29.75F WCI  19
GEORGETOWN     FLURRIES  32  24  72 N10       29.74F WCI  24
EASTON         CLOUDY    32  28  86 NW13      29.82S WCI  22
CAMBRIDGE      PTSUNNY   34  28  80 NW16      29.76F WCI  23
SALISBURY      CLOUDY    34  25  69 NW17      29.74F WCI  23
OCEAN CITY     PTSUNNY   32  24  72 N16G25    29.72S WCI  21
WALLOPS ISLAND CLOUDY    32  25  75 N15G23    29.75S WCI  22
ACCOMACK*      CLOUDY    32  25  74 N17       29.76S WCI  21
$$

NCZ012>017-030>032-271700-
NORTH CENTRAL AND EASTERN NORTH CAROLINA

CITY           SKY/WX    TMP DP  RH WIND       PRES   REMARKS
ROANOKE RAPIDS LGT SNOW  34  32  93 N8        29.83S
RALEIGH        PTSUNNY   34  17  50 VRB7      29.84R
ELIZABETH CITY CLOUDY    33  28  81 NW12      29.78S WCI  24
AHOSKIE*       LGT SNOW  31  27  84 N6        29.83S
EDENTON*       LGT SNOW  32  29  90 N13       29.80R WCI  22
CURRITUCK*     CLOUDY    32  28  85 NW8       29.78S
KILL DEVIL HLS CLOUDY    33  32  96 NW9G18    29.74S
MANTEO         CLOUDY    32  30  93 NW9G17    29.77R
CAPE HATTERAS  LGT SNOW  34  31  88 NW12G21   29.75S FOG
TARBORO*       FLURRIES  34  31  88 N6        29.84S
GOLDSBORO      FLURRIES  36  35  98 NW7       29.81S
WASHINGTON     PTSUNNY   33  27  78 N16G23    29.82R WCI  23
GREENVILLE     PTSUNNY   34  30  86 N8        29.85S
NEW BERN       CLOUDY    38  27  64 N10       29.81S
WILMINGTON     CLOUDY    38  34  85 NW14      29.81F
$$

VAZ048-271700-
ELSEWHERE

CITY           SKY/WX    TMP DP  RH WIND       PRES   REMARKS
HARRISBURG PA  PTSUNNY   27  17  66 N10       29.82R WCI  17
BALTIMORE      CLOUDY    32  22  66 NW12      29.80S WCI  23
ANNAPOLIS      CLOUDY    32  23  69 NW15      29.80S WCI  22
ANDREWS AFB    PTSUNNY   30  23  74 NW15      29.80S WCI  19
PHILADELPHIA   CLOUDY    29  21  72 NW15      29.76F WCI  18
HENDERSON NC   CLOUDY    32  23  68 NW5       29.84R
GREENSBORO     MOSUNNY   36  13  38 NW10      29.83S
ROCKY MOUNT    CLOUDY    36  29  75 N8        29.84R
$$

VAZ100-271700-
MARINE

STATION/POSITION TIME  TEMP    WIND        PRES    WAVE   SWELL
                       AIR SEA DIR/SP/G            HT/PER HT/PER
                 (UTC) (F)     (DEG/KT/KT) (MB)    (FT/S) (FT/S)
BRANDYWINE LGT   1600   29 37  350/ 24/ 30 1006.6S
CAPE MAY NJ      1600   30 38  340/  2/  6 1006.1S
LEWES DE         1600   30 36  340/ 22/ 26 1006.6F
15NM E FENWICK I 1600   31 42              1004.8F  13/12
OCEAN-CITY-INLET 1600   32 38  350/ 14/ 19 1005.9S
WACHAPREAGUE VA  1600   32 40  360/  7/ 14 1007.6R
THOMAS POINT MD  1600   31 37  340/ 15/ 17 1009.9F
GOOSES REEF MD   1600   31     VRB 16/ 17  1008.0S
COVE POINT MD    1600   30     350/ 20/ 23 1008.5F
SOLOMONS ISLAND  1600      38                N/A
BISHOPS HEAD MD  1600   32 36  330/ 15/ 19 1007.5F
PINEY POINT MD   1600          350/ 19/ 22   N/A
POTOMAC MD       1600   32     340/ 16/ 19 1007.5F
CAMBRIDGE MD     1600   31 36  320/ 14/ 19 1008.2F
LEWISETTA VA     1600   32 37  330/ 12/ 17 1008.7F
RAPPAHANNOCK LGT 1600          340/ 24/ 26 1008.3S
STINGRAY PT      1600   32     340/ 16/ 21 1008.9F
YORK RVR RNG VA  1600   32     350/ 21/ 24 1007.7R
JAMESTOWN VA     1600   31     360/ 12/ 17   N/A
DOMINION TERM VA 1600   33     340/  5/ 14 1008.6S
KIPTOPEKE VA     1600      45  360/ 21/ 25   N/A
CHES BAY BRIDGE  1600   33 41  330/ 21/ 24 1007.6F
CAPE HENRY VA    1600   33     330/ 21/ 27 1006.4S
CHESAPEAKE LGHT  1500   33     360/ 24/ 27 1007.4R
WILLOUBY STN VA  1600   32     350/ 14/ 17 1008.7F
S CRANEY ISL VA  1600          340/ 11/ 16 1008.3F
CAPE HENRY BUOY  1500      44                N/A     8/13   5/13
1ST LANDING BUOY 1600   34     340/ 21/ 27 1007.6S
CAPE CHARLES BUO 1500      42                N/A     8/13   8/13
OFFSHORE WE BUOY 1600      46                N/A    10/13  10/13
64NM E OF VA BCH 1600   37 51  340/ 21/ 27 1005.2R  13/14  10/14
DUCK PIER NC     1600   33 43  330/ 18/ 22 1006.5R
44100 DUCK FRF   1600      45                N/A    10/12   7/12
44056 DUCK FRF   1600      44                N/A    10/13   7/13
OREGON INLET NC  1600   33 45  320/ 13/ 20 1007.4R
HATTERAS NC      1600   34 48  340/ 18/ 22 1007.7S
DIAMOND SHLS NC  1600   39 69  330/ 21/ 27 1006.1F   7/12   5/12


USA.gov is the U.S. government's official web portal to all federal, state and local government web resources and services.